Cartersville, GA

5:29 PM EDT on June 23, 2017 (GMT -0400)
Cartersville

Weather History for KVPC - March, 2014

Change the Weather History Date:

Thursday, March 6, 2014

  Actual Average Record
Temperature  
Mean Temperature 40 °F 49 °F  
Max Temperature 45 °F 62 °F 73 °F (2009)
Min Temperature 34 °F 37 °F 24 °F (2002)
Degree Days  
Heating Degree Days 25 16  
Month to date heating degree days 110 99  
Since 1 July heating degree days 2904 2711  
Cooling Degree Days 0 0  
Month to date cooling degree days 0 0  
Year to date cooling degree days 0 0  
Moisture  
Dew Point 31 °F    
Average Humidity 63    
Maximum Humidity 92    
Minimum Humidity 33    
Precipitation  
Precipitation 0.95 in 0.18 in 2.22 in (2003)
Month to date precipitation 1.34 0.96  
Year to date precipitation 7.06 10.46  
Snow  
Snow 0.00 in - - ()
Month to date snowfall 0.0  
Since 1 July snowfall 0.0  
Snow Depth -    
Sea Level Pressure  
Sea Level Pressure 30.08 in    
Wind  
Wind Speed 7 mph (East)    
Max Wind Speed 18 mph    
Max Gust Speed 31 mph    
Visibility 7 miles    
Events Rain    
T = Trace of Precipitation, MM = Missing Value Source: NWS Daily Summary

Daily Weather History Graph

Daily Weather History Graph

Search for Another Location

Airport or City:

Trip Planner

Search our weather history database for the weather conditions in past years. The results will help you decide how hot, cold, wet, or windy it might be!

Date:

Astronomy

Mar. 06, 2014 Rise Set
Actual Time 7:01 AM EST 6:39 PM EST
Civil Twilight 6:36 AM EST 7:04 PM EST
Nautical Twilight 6:07 AM EST 7:33 PM EST
Astronomical Twilight 5:38 AM EST 8:03 PM EST
Moon 10:24 AM EST (3/6) No Moon Set
Length of Visible Light 12h 28m
Length of Day
11h 38m
Waxing Crescent, 32% of the Moon is Illuminated
Mar 6
Waxing Crescent
Mar 8
First Quarter
Mar 16
Full
Mar 23
Last Quarter
Mar 30
New

Hourly Weather History & Observations

Time (EST) Temp. Windchill Dew Point Humidity Pressure Visibility Wind Dir Wind Speed Gust Speed Precip Events Conditions
12:53 AM 37.0 °F - 35.1 °F 93% 30.13 in 10.0 mi Calm Calm - N/A   Clear
1:53 AM 35.1 °F - 33.1 °F 92% 30.14 in 10.0 mi Calm Calm - N/A   Clear
2:53 AM 43.0 °F 39.5 °F 37.0 °F 80% 30.11 in 10.0 mi ENE 5.8 mph - N/A   Clear
3:53 AM 43.0 °F 38.8 °F 36.0 °F 76% 30.10 in 10.0 mi East 6.9 mph - N/A   Clear
4:53 AM 43.0 °F 37.7 °F 35.1 °F 74% 30.10 in 10.0 mi East 9.2 mph 19.6 mph N/A   Clear
5:53 AM 42.1 °F 36.1 °F 28.9 °F 60% 30.11 in 10.0 mi East 10.4 mph 16.1 mph N/A   Clear
6:53 AM 42.1 °F 35.7 °F 27.0 °F 55% 30.14 in 10.0 mi ESE 11.5 mph 21.9 mph N/A   Mostly Cloudy
7:53 AM 41.0 °F 33.9 °F 24.1 °F 51% 30.12 in 10.0 mi East 12.7 mph 20.7 mph N/A   Overcast
8:53 AM 41.0 °F 34.3 °F 25.0 °F 53% 30.16 in 10.0 mi East 11.5 mph 25.3 mph N/A   Overcast
9:53 AM 42.1 °F 36.1 °F 19.0 °F 40% 30.16 in 10.0 mi East 10.4 mph 23.0 mph N/A   Overcast
10:53 AM 43.0 °F 35.7 °F 17.1 °F 35% 30.14 in 10.0 mi East 15.0 mph 24.2 mph N/A   Overcast
11:53 AM 44.1 °F 37.7 °F 17.1 °F 34% 30.12 in 10.0 mi East 12.7 mph 31.1 mph N/A   Mostly Cloudy
12:53 PM 45.0 °F 40.6 °F 17.1 °F 33% 30.09 in 10.0 mi East 8.1 mph - N/A   Overcast
1:53 PM 41.0 °F 35.2 °F 25.0 °F 53% 30.07 in 7.0 mi East 9.2 mph - 0.01 in Rain Light Rain
2:27 PM 37.0 °F 33.3 °F 30.9 °F 79% 30.08 in 2.5 mi East 4.6 mph - 0.10 in Rain Heavy Rain
2:39 PM 37.0 °F 33.3 °F 32.0 °F 82% 30.10 in 3.0 mi Variable 4.6 mph - 0.14 in Rain Rain
2:53 PM 36.0 °F 33.3 °F 32.0 °F 86% 30.10 in 1.8 mi ESE 3.5 mph - 0.20 in Rain Heavy Rain
3:30 PM 35.1 °F 28.6 °F 32.0 °F 89% 30.09 in 3.0 mi NE 8.1 mph - 0.26 in Rain Rain
3:40 PM 35.1 °F 27.9 °F 32.0 °F 89% 30.09 in 2.0 mi NE 9.2 mph - 0.30 in Rain Heavy Rain
3:53 PM 35.1 °F 29.3 °F 32.0 °F 89% 30.09 in 1.8 mi Variable 6.9 mph - 0.38 in Rain Heavy Rain
4:00 PM 35.1 °F 28.6 °F 33.1 °F 92% 30.08 in 2.5 mi ENE 8.1 mph - 0.02 in Rain Rain
4:13 PM 36.0 °F 30.3 °F 33.1 °F 89% 30.08 in 3.0 mi ENE 6.9 mph - 0.05 in Rain Rain
4:53 PM 36.0 °F 29.6 °F 33.1 °F 89% 30.06 in 4.0 mi NE 8.1 mph - 0.11 in Rain Light Rain
5:53 PM 37.0 °F 31.0 °F 33.1 °F 86% 30.03 in 7.0 mi ENE 8.1 mph - 0.02 in   Overcast
6:53 PM 37.0 °F 33.3 °F 34.0 °F 89% 30.02 in 7.0 mi ENE 4.6 mph - 0.02 in Rain Light Rain
7:53 PM 37.9 °F - 35.1 °F 89% 30.02 in 5.0 mi Calm Calm - 0.02 in Rain Light Rain
8:53 PM 37.0 °F - 36.0 °F 96% 30.02 in 5.0 mi Calm Calm - 0.07 in Rain Light Rain
9:48 PM 37.4 °F - 35.6 °F 93% 30.02 in 7.0 mi Calm Calm - 0.02 in Rain Light Rain
9:53 PM 37.9 °F - 36.0 °F 93% 30.02 in 6.0 mi Calm Calm - 0.02 in Rain Light Rain
10:53 PM 37.9 °F 35.5 °F 36.0 °F 93% 30.02 in 4.0 mi North 3.5 mph - 0.02 in   Overcast
11:53 PM 37.9 °F - 37.0 °F 97% 30.01 in 3.0 mi Calm Calm - 0.07 in Rain Rain